Overview Statistics Trail Chart Weather Telemetry Raw packets
 

This is the latest recevied weather packets stored in our database for station/object MeshWX-1. If no packets are shown the sender has not sent any weather packets the latest 10 day(s).

<< 32 33 34 35 36 37 38 >>
Time Temp. Humidity Pressure Rain* Wind** Luminosity Snow
1787883915 17.78° C 80% 1001.4 hPa - - - -
1787882678 18.33° C 77% 1001.2 hPa - - - -
1787881989 18.33° C 77% 1001.2 hPa - - - -
1787881713 18.33° C 75% 1001 hPa - - - -
1787880698 18.33° C 75% 1001 hPa - - - -
1787880026 18.33° C 75% 1001 hPa - - - -
1787878658 18.89° C 74% 1000.8 hPa - - - -
1787878028 18.89° C 74% 1000.8 hPa - - - -
1787877751 19.44° C 72% 1000.8 hPa - - - -
1787876618 19.44° C 72% 1000.8 hPa - - - -
1787875994 19.44° C 72% 1000.8 hPa - - - -
1787874578 20° C 71% 1000.8 hPa - - - -
1787873978 20° C 71% 1000.8 hPa - - - -
1787873679 20.56° C 68% 1000.8 hPa - - - -
1787872537 20.56° C 68% 1000.8 hPa - - - -
1787871962 20.56° C 68% 1000.8 hPa - - - -
1787870497 21.67° C 66% 1000.9 hPa - - - -
1787869946 21.67° C 66% 1000.9 hPa - - - -
1787869682 22.78° C 63% 1000.7 hPa - - - -
1787868457 22.78° C 63% 1000.7 hPa - - - -
1787867875 22.78° C 63% 1000.7 hPa - - - -
1787866357 23.33° C 55% 1000.2 hPa - - - -
1787865787 23.33° C 55% 1000.2 hPa - - - -
1787865505 23.89° C 46% 999.6 hPa - - - -
1787864257 23.89° C 46% 999.6 hPa - - - -

* Rain since midnight (hover to see other rain measurements)
** Current wind speed in m/s (hover to see current wind gust speed)